Ikermit

KL  EN  DA
ASIAQ
Weather Now GREENLAND SURVEY
Updated [WGT/WGST] Temperature [°C] Wind [m/s] Air pressure [hPa] Relative humidity [%] Precipitation [mm]
Present Wind chill Speed Max
21.01 20:00-10,8-27,232,9 ⇘41,797458n/a
21.01 19:00-10,8-26,931,4 ⇘42,297454n/a
21.01 18:00-10,8-26,529,3 ⇘41,297563n/a
21.01 17:00-10,9-26,528,3 ⇘38,697565n/a
21.01 16:00-10,6-26,229,3 ⇘37,697462n/a
21.01 15:00-9,9-24,927,3 ⇘37,197563n/a
21.01 14:00-9,7-24,325,7 ⇘37,697563n/a
21.01 13:00-9,2-23,726,3 ⇘33,597561n/a
21.01 12:00-9,0-22,823,2 ⇘29,397765n/a
21.01 11:00-8,6-23,731,4 ⇘41,797455n/a
21.01 10:00-8,8-22,824,7 ⇘34,097567n/a
21.01 09:00-8,80,0n/an/a97374n/a
21.01 08:00-7,90,0n/an/a97173n/a
21.01 07:00-8,00,0n/an/a96980n/a
21.01 06:00-7,30,0n/an/a96683n/a
21.01 05:00-6,30,0n/an/a96587n/a
21.01 04:00-6,30,0n/an/a961100n/a
21.01 03:00-5,90,0n/an/a959100n/a
21.01 02:00-5,40,0n/an/a961100n/a
21.01 01:00-3,30,0n/an/a962100n/a
21.01 00:00-1,70,0n/an/a964100n/a
20.01 23:00-0,80,0n/an/a964100n/a
20.01 22:00-0,70,0n/an/a965100n/a
20.01 21:000,00,0n/an/a966100n/a
20.01 20:00-0,40,0n/an/a968100n/a
Position: (64.781944444,-40.30166666)

[Back]